| time (UTC) | temp F | wind direction | speed MPH | gust MPH | rain 1hr in | rain 24hr in | rain mn in | humidity % | barometer mb |
| 20260508190008 | 56 | 286 | 6.0 | 10.0 | 0.02 | 0.02 | 0.02 | 82 | 1014.2 |
| 20260508184505 | 57 | 269 | 8.0 | 11.0 | 0.02 | 0.02 | 0.02 | 79 | 1014.0 |
| 20260508183004 | 57 | 297 | 5.0 | 9.0 | 0.01 | 0.01 | 0.01 | 81 | 1013.9 |
| 20260508181504 | 58 | 230 | 10.0 | 18.0 | 0.00 | 0.00 | 0.00 | 76 | 1013.4 |
| 20260508180003 | 62 | 259 | 9.0 | 13.0 | 0.00 | 0.00 | 0.00 | 67 | 1013.3 |
| 20260508174501 | 64 | 182 | 2.0 | 4.0 | 0.00 | 0.00 | 0.00 | 64 | 1013.0 |
| 20260508173001 | 65 | 186 | 2.0 | 4.0 | 0.00 | 0.00 | 0.00 | 63 | 1012.8 |
| 20260508171601 | 66 | 109 | 0.0 | 6.0 | 0.00 | 0.00 | 0.00 | 57 | 1012.6 |
| 20260508170101 | 67 | 95 | 0.0 | 4.0 | 0.00 | 0.00 | 0.00 | 56 | 1012.2 |
| 20260508164559 | 67 | 43 | 1.0 | 8.0 | 0.00 | 0.00 | 0.00 | 56 | 1012.1 |
| 20260508163057 | 67 | 30 | 2.0 | 6.0 | 0.00 | 0.00 | 0.00 | 54 | 1012.3 |
| 20260508161556 | 66 | 34 | 2.0 | 4.0 | 0.00 | 0.00 | 0.00 | 55 | 1012.3 |
| 20260508160059 | 67 | 62 | 2.0 | 9.0 | 0.00 | 0.00 | 0.00 | 55 | 1012.3 |
| 20260508154553 | 68 | 27 | 4.0 | 9.0 | 0.00 | 0.00 | 0.00 | 54 | 1012.4 |
| 20260508153052 | 69 | 24 | 4.0 | 8.0 | 0.00 | 0.00 | 0.00 | 53 | 1012.2 |
| 20260508151550 | 69 | 351 | 2.0 | 7.0 | 0.00 | 0.00 | 0.00 | 55 | 1012.3 |
| 20260508150104 | 69 | 32 | 1.0 | 7.0 | 0.00 | 0.00 | 0.00 | 54 | 1012.4 |
| 20260508144555 | 69 | 20 | 1.0 | 3.0 | 0.00 | 0.00 | 0.00 | 53 | 1012.6 |
| 20260508143049 | 68 | 37 | 2.0 | 5.0 | 0.00 | 0.00 | 0.00 | 56 | 1012.6 |
| 20260508141551 | 68 | 14 | 2.0 | 6.0 | 0.00 | 0.00 | 0.00 | 59 | 1012.8 |
| 20260508140049 | 68 | 37 | 2.0 | 6.0 | 0.00 | 0.00 | 0.00 | 57 | 1013.0 |
| 20260508134539 | 68 | 6 | 3.0 | 7.0 | 0.00 | 0.00 | 0.00 | 62 | 1013.1 |
| 20260508133042 | 67 | 162 | 1.0 | 5.0 | 0.00 | 0.00 | 0.00 | 57 | 1013.3 |
| 20260508131537 | 68 | 46 | 1.0 | 7.0 | 0.00 | 0.00 | 0.00 | 57 | 1013.5 |
| 20260508130032 | 67 | 348 | 0.0 | 8.0 | 0.00 | 0.00 | 0.00 | 59 | 1013.6 |
| 20260508124530 | 66 | 16 | 2.0 | 5.0 | 0.00 | 0.00 | 0.00 | 61 | 1013.9 |
| 20260508123031 | 66 | 104 | 2.0 | 6.0 | 0.00 | 0.00 | 0.00 | 57 | 1013.9 |
| 20260508121527 | 66 | 72 | 3.0 | 6.0 | 0.00 | 0.00 | 0.00 | 63 | 1013.9 |
| 20260508120026 | 66 | 12 | 2.0 | 7.0 | 0.00 | 0.00 | 0.00 | 61 | 1014.2 |
| 20260508114532 | 66 | 33 | 3.0 | 6.0 | 0.00 | 0.00 | 0.00 | 63 | 1014.1 |
| 20260508113037 | 65 | 332 | 3.0 | 6.0 | 0.00 | 0.00 | 0.00 | 68 | 1014.2 |
| 20260508111524 | 65 | 335 | 4.0 | 7.0 | 0.00 | 0.00 | 0.00 | 68 | 1014.3 |
| 20260508110017 | 63 | 27 | 1.0 | 7.0 | 0.00 | 0.00 | 0.00 | 70 | 1014.5 |
| 20260508104516 | 63 | 56 | 4.0 | 8.0 | 0.00 | 0.00 | 0.00 | 69 | 1014.6 |
| 20260508103013 | 62 | 34 | 4.0 | 5.0 | 0.00 | 0.00 | 0.00 | 72 | 1014.7 |
| 20260508101511 | 62 | 332 | 0.0 | 6.0 | 0.00 | 0.00 | 0.00 | 74 | 1014.9 |
| 20260508100010 | 62 | 345 | 1.0 | 5.0 | 0.00 | 0.00 | 0.00 | 74 | 1015.0 |
| 20260508094506 | 60 | 297 | 1.0 | 7.0 | 0.00 | 0.00 | 0.00 | 77 | 1015.0 |
| 20260508093012 | 60 | 87 | 2.0 | 7.0 | 0.00 | 0.00 | 0.00 | 75 | 1015.1 |
| 20260508091504 | 60 | 281 | 2.0 | 5.0 | 0.00 | 0.00 | 0.00 | 75 | 1015.1 |
| 20260508084559 | 58 | 88 | 1.0 | 5.0 | 0.00 | 0.00 | 0.00 | 76 | 1015.2 |
| 20260508083056 | 58 | 66 | 1.0 | 6.0 | 0.00 | 0.00 | 0.00 | 77 | 1015.1 |
| 20260508081601 | 56 | 47 | 3.0 | 7.0 | 0.00 | 0.00 | 0.00 | 77 | 1015.2 |
| 20260508080051 | 57 | 96 | 3.0 | 7.0 | 0.00 | 0.00 | 0.00 | 79 | 1015.2 |
| 20260508074553 | 56 | 337 | 1.0 | 4.0 | 0.00 | 0.03 | 0.00 | 81 | 1015.3 |
| 20260508073050 | 56 | 75 | 0.0 | 4.0 | 0.00 | 0.03 | 0.00 | 80 | 1015.2 |
| 20260508071543 | 54 | 92 | 0.0 | 6.0 | 0.00 | 0.03 | 0.00 | 83 | 1015.2 |
| 20260508070039 | 53 | 93 | 2.0 | 5.0 | 0.00 | 0.03 | 0.00 | 84 | 1015.2 |
| 20260508064556 | 53 | 42 | 2.0 | 5.0 | 0.00 | 0.05 | 0.00 | 85 | 1015.1 |
| 20260508063030 | 53 | 70 | 1.0 | 4.0 | 0.00 | 0.05 | 0.00 | 83 | 1015.1 |
| 20260508061526 | 52 | 26 | 2.0 | 4.0 | 0.00 | 0.05 | 0.00 | 85 | 1014.9 |
| 20260508060024 | 50 | 239 | 0.0 | 2.0 | 0.00 | 0.05 | 0.00 | 90 | 1015.0 |
| 20260508054526 | 49 | 238 | 0.0 | 1.0 | 0.00 | 0.05 | 0.00 | 93 | 1014.9 |
| 20260508053013 | 47 | 238 | 0.0 | 2.0 | 0.00 | 0.05 | 0.00 | 95 | 1014.9 |
| 20260508051516 | 46 | 238 | 0.0 | 0.0 | 0.00 | 0.05 | 0.00 | 96 | 1015.0 |
| 20260508050002 | 44 | 229 | 0.0 | 1.0 | 0.00 | 0.05 | 0.00 | 96 | 1014.8 |
| 20260508044502 | 43 | 293 | 0.0 | 2.0 | 0.00 | 0.05 | 0.00 | 96 | 1014.8 |
| 20260508043100 | 43 | 293 | 0.0 | 2.0 | 0.00 | 0.05 | 0.00 | 95 | 1014.8 |
| 20260508041557 | 43 | 293 | 0.0 | 3.0 | 0.00 | 0.05 | 0.00 | 95 | 1014.6 |
| 20260508040103 | 43 | 294 | 1.0 | 4.0 | 0.00 | 0.05 | 0.00 | 96 | 1014.5 |
| 20260508034555 | 43 | 264 | 2.0 | 3.0 | 0.00 | 0.05 | 0.00 | 96 | 1014.5 |
| 20260508033056 | 42 | 232 | 0.0 | 3.0 | 0.00 | 0.05 | 0.00 | 94 | 1014.6 |
| 20260508031602 | 42 | 249 | 0.0 | 3.0 | 0.00 | 0.05 | 0.00 | 94 | 1014.3 |
| 20260508030057 | 43 | 250 | 1.0 | 2.0 | 0.00 | 0.05 | 0.00 | 95 | 1014.2 |
| 20260508024550 | 43 | 250 | 0.0 | 1.0 | 0.00 | 0.06 | 0.00 | 95 | 1014.1 |
| 20260508023050 | 43 | 240 | 0.0 | 2.0 | 0.00 | 0.06 | 0.00 | 94 | 1014.2 |
| 20260508021551 | 43 | 240 | 0.0 | 3.0 | 0.00 | 0.06 | 0.00 | 94 | 1014.2 |
| 20260508020050 | 42 | 240 | 1.0 | 3.0 | 0.00 | 0.06 | 0.00 | 93 | 1014.3 |
| 20260508014547 | 43 | 240 | 0.0 | 2.0 | 0.00 | 0.06 | 0.00 | 92 | 1014.3 |
| 20260508013046 | 43 | 242 | 2.0 | 3.0 | 0.00 | 0.06 | 0.00 | 92 | 1014.2 |
| 20260508011549 | 43 | 284 | 0.0 | 2.0 | 0.00 | 0.06 | 0.00 | 91 | 1014.2 |
| 20260508010041 | 44 | 284 | 1.0 | 2.0 | 0.00 | 0.06 | 0.00 | 90 | 1014.2 |
| 20260508004540 | 45 | 284 | 1.0 | 2.0 | 0.00 | 0.06 | 0.00 | 90 | 1014.1 |
| 20260508003035 | 45 | 284 | 0.0 | 2.0 | 0.00 | 0.06 | 0.00 | 90 | 1014.2 |
| 20260508001534 | 45 | 284 | 0.0 | 2.0 | 0.00 | 0.06 | 0.00 | 89 | 1014.2 |
| 20260508000030 | 46 | 284 | 0.0 | 2.0 | 0.00 | 0.06 | 0.00 | 88 | 1014.2 |
| 20260507234532 | 47 | 284 | 1.0 | 3.0 | 0.00 | 0.06 | 0.00 | 89 | 1014.4 |
| 20260507233032 | 47 | 284 | 1.0 | 4.0 | 0.00 | 0.06 | 0.00 | 88 | 1014.5 |
| 20260507231523 | 47 | 284 | 2.0 | 4.0 | 0.00 | 0.06 | 0.00 | 88 | 1014.6 |
| 20260507230021 | 47 | 298 | 1.0 | 3.0 | 0.00 | 0.06 | 0.00 | 88 | 1014.8 |
| 20260507224523 | 47 | 302 | 1.0 | 3.0 | 0.00 | 0.06 | 0.00 | 87 | 1014.7 |
| 20260507223118 | 47 | 307 | 1.0 | 3.0 | 0.00 | 0.06 | 0.00 | 87 | 1014.8 |
| 20260507221517 | 48 | 327 | 0.0 | 0.0 | 0.00 | 0.06 | 0.00 | 85 | 1015.0 |
| 20260507220011 | 49 | 328 | 0.0 | 0.0 | 0.00 | 0.06 | 0.06 | 83 | 1014.9 |
| 20260507214518 | 50 | 331 | 0.0 | 0.0 | 0.00 | 0.06 | 0.06 | 82 | 1014.8 |
| 20260507213010 | 50 | 331 | 0.0 | 3.0 | 0.00 | 0.06 | 0.06 | 81 | 1014.8 |
| 20260507211510 | 51 | 323 | 0.0 | 3.0 | 0.00 | 0.06 | 0.06 | 81 | 1014.7 |
| 20260507210009 | 51 | 304 | 0.0 | 2.0 | 0.00 | 0.06 | 0.06 | 81 | 1014.9 |
| 20260507204508 | 51 | 304 | 0.0 | 1.0 | 0.00 | 0.06 | 0.06 | 83 | 1014.9 |
| 20260507203008 | 50 | 257 | 0.0 | 0.0 | 0.00 | 0.06 | 0.06 | 84 | 1014.7 |
| 20260507201513 | 50 | 257 | 0.0 | 0.0 | 0.00 | 0.06 | 0.06 | 84 | 1014.6 |
| 20260507200006 | 51 | 275 | 0.0 | 0.0 | 0.00 | 0.06 | 0.06 | 82 | 1014.5 |
| 20260507194506 | 52 | 275 | 0.0 | 3.0 | 0.00 | 0.06 | 0.06 | 81 | 1014.3 |
| 20260507193005 | 52 | 275 | 1.0 | 4.0 | 0.00 | 0.06 | 0.06 | 81 | 1014.3 |
| 20260507191507 | 52 | 272 | 1.0 | 3.0 | 0.00 | 0.06 | 0.06 | 80 | 1014.2 |